LogoCoinalyze
    Ad-Free Version Anasayfa Piyasalar Fonlama Oranları
    Vadeli işlem verileri
    • Toplulaştırılmış veriler (Madeni Paralar)
    • Bireysel grafikler
    • Küresel grafikler
    Alarmlar
    TA
    Bitcoin Ethereum BNB Ripple Tron ZCash Dogecoin Monero UNUS SED LEO Chainlink Cardano Stellar Lumens Bitcoin Cash Litecoin Hedera Cronos Polkadot Ethereum Classic Algorand Quant Cosmos VeChain Dash Bitcoin SV BitTorrent Terra Decred Tezos Iota The Graph THETA Decentraland NEO Chiliz MultiversX Golem Basic Attention Token Horizen Qtum 0x DigiByte Beam RIF Token FTX Token Holo FUNToken Zilliqa Ontology Nano aelf Enjin Coin Ravencoin Mask Network Siacoin Verge Status WINk Waves IoTeX iExec RLC Power Ledger Steem Kyber Network Crystal Lisk Ark Ardor WOO Network IOST WAX Icon Storj Loopring Wanchain Bitcoin Diamond AdEx Bitcoin Gold Augur OmiseGO NEM MonaCoin BitShares Ren Komodo V Systems Nuls Mithril SOLVE Maker EOS Aion Nebulas HedgeTrade Bread Fetch.ai TomoChain Polygon Fantom Waltonchain GXChain Bytom Metaverse ETP MaidSafeCoin QASH
    Sırala:
    Daha
    • API
    • Mum Desenleri
    • Bağış
    • İletişim
    • Site Haritası
    • Gizlilik Politikası
    • Sorumluluk Reddi Beyanı
    • Theme:
    Türkçe
    • English
    • Français
    • Русский
    • Deutsch
    • Nederlands
    • Português (BR)
    • Español
    • 한국어
    • 简体中文
    • 日本語
     
    Giriş / Kaydol
    Markets/ Pepe/ PEPE ve USD/ PEPEUSD Kraken
    İşlemler
    WL
    Sohbet
    İstatistikler
    Haberler
    ⦷
    AAA
    0.000003403 652650.00000000 15:55:50
    0.000003403 9660017.62632000 15:54:41
    0.000003403 39234300.00000000 15:54:41
    0.000003404 39234300.00000000 15:53:36
    0.000003403 39234300.00000000 15:52:35
    0.000003404 305528.00000000 15:52:07
    0.000003403 380381.00000000 15:51:09
    0.000003402 687254.00000000 15:51:02
    0.000003402 5861664.00000000 15:50:37
    0.000003408 39234300.00000000 15:50:06
    0.000003408 161586564.61577001 15:50:06
    0.000003405 16680377.40000000 15:49:54
    0.000003405 161586564.61577001 15:49:43
    0.000003405 39234300.00000000 15:49:43
    0.000003405 39234300.00000000 15:49:42
    0.000003405 39234300.00000000 15:49:39
    0.000003406 39234300.00000000 15:49:30
    0.000003406 39234300.00000000 15:49:24
    0.000003406 161586564.61577001 15:49:24
    0.000003407 39234300.00000000 15:49:13
    0.000003407 39234300.00000000 15:49:01
    0.000003409 39234300.00000000 15:48:46
    0.000003408 28496419.13000000 15:48:22
    0.000003406 175981500.00000000 15:48:15
    0.000003406 7638429.06000000 15:48:15
    0.000003406 39234300.00000000 15:48:15
    0.000003407 39234300.00000000 15:48:13
    0.000003407 39234300.00000000 15:48:11
    0.000003408 14688576.35172000 15:48:11
    0.000003409 543770.15000000 15:48:08
    0.000003409 39234300.00000000 15:48:07
    0.000003409 161586564.61577001 15:48:07
    0.000003408 39234300.00000000 15:48:02
    0.000003409 29334115.57641000 15:48:02
    0.000003409 29334115.57641000 15:48:02
    0.000003409 39234300.00000000 15:48:02
    0.000003412 39234300.00000000 15:47:57
    0.000003412 161586564.61577001 15:47:57
    0.000003412 39234300.00000000 15:47:57
    0.000003411 5822416.00000000 15:47:48
    0.000003412 158998521.31375000 15:47:46
    0.000003412 161586564.61577001 15:47:46
    0.000003412 39234300.00000000 15:47:46
    0.000003413 39234300.00000000 15:47:44
    0.000003414 7638429.06000000 15:47:43
    0.000003414 39234300.00000000 15:47:42
    0.000003414 158998521.31375000 15:47:42
    0.000003414 161586564.61577001 15:47:42
    0.000003414 39234300.00000000 15:47:42
    0.000003414 219667004.55458999 15:47:42
    0.000003414 39234300.00000000 15:47:42
    0.000003414 176569948.00000000 15:47:41
    0.000003414 39234300.00000000 15:47:41
    0.000003416 7638429.06000000 15:47:41
    0.000003417 39234300.00000000 15:47:37
    0.000003416 235190404.50329000 15:47:37
    0.000003416 38491827.32662000 15:47:37
    0.000003416 774512568.89721012 15:47:37
    0.000003415 439307278.25402999 15:47:37
    0.000003415 10119701.99999000 15:47:37
    0.000003411 39234300.00000000 15:47:37
    0.000003416 103857792.35374001 15:47:37
    0.000003416 39234300.00000000 15:47:37
    0.000003415 2000000.00000000 15:47:37
    0.000003415 39234300.00000000 15:47:37
    0.000003414 69594930.40948001 15:47:37
    0.000003414 132559614.94958000 15:47:37
    0.000003414 39234300.00000000 15:47:37
    0.000003413 1698962634.23410010 15:47:37
    0.000003413 2698324365.76590014 15:47:37
    0.000003413 39234300.00000000 15:47:37
    0.000003412 219816089.58590001 15:47:37
    0.000003412 39234300.00000000 15:47:37
    0.000003411 219876868.95337999 15:47:37
    0.000003411 39234300.00000000 15:47:37
    0.000003411 153330929.34623000 15:47:07
    0.000003411 39234300.00000000 15:47:07
    0.000003410 347008500.00000000 15:47:04
    0.000003409 326398.00000000 15:47:03
    0.000003410 7638429.06000000 15:47:00
    0.000003409 9793304.00000000 15:46:47
    0.000003410 39234300.00000000 15:46:47
    0.000003409 8697228.68520000 15:46:41
    0.000003408 39234300.00000000 15:46:41
    0.000003407 220138575.57622001 15:46:41
    0.000003406 220232528.06086999 15:46:41
    0.000003406 39234300.00000000 15:46:41
    0.000003405 610335119.69544005 15:46:41
    0.000003405 306713184.83304000 15:46:41
    0.000003405 743665474.00387013 15:46:41
    0.000003405 946591807.48737013 15:46:41
    0.000003406 511867000.00000000 15:46:27
    0.000003405 220309094.46476001 15:46:07
    0.000003407 40180663.18110001 15:45:51
    0.000003407 161586564.61577001 15:45:51
    0.000003408 30732772.20313000 15:45:51
    0.000003408 145241200.00000000 15:45:51
    0.000003409 39234300.00000000 15:45:50
    0.000003409 220005866.82311001 15:45:50
    0.000003409 557660000.00000000 15:45:44
    Çıkış
    AAA
    Yardım
    🙂 🤣 😎 🤗 😛 😉 😜 🤑 🤔 😑 😴 😕 🙃 😲 😇 🙁 😢 😬 😟 😠 🕺 🏃 💪 ✌ 👌 👍 👎 👏 👋 🤝 🍺 🍻 🐋 🐟 🦈 🗽 🚄 ✈ 🛑 🚀 🏦 🌚 ⭐ 🌞 ⚡ 🏆 💰 💲 🔨 ❓ ❗ 💯 🔶 🏁
    ☺
    Giriş veya Kaydol ve sohbet
    24 Saat
    Değişim
    -3.41%
    Hacim
    325,188,346,018
    Yüksek
    0.000003523
    Düşük
    0.000003365
    7 Gün
    Değişim
    -10.75%
    Hacim
    3,680,530,817,379
    Yüksek
    0.000004012
    Düşük
    0.000003363
    30 Gün
    Değişim
    +17.18%
    Hacim
    14,896,188,380,079
    Yüksek
    0.000004550
    Düşük
    0.000002530
    Pepe price rallies 25% as whale demand and futures interest surge
    Key takeaways Pepe has gained 25% this week, including a combined 22% advance over the previous two days. Seven whale transactions worth more than $1 million each occurred Thursday, the highest...
    coinjournal.net
    Aug 21, 2026 08:41
    PEPE Supply on Exchanges Just Took a Massive Hit – What’s Next?
    A drop in PEPE exchange balances has added to bullish expectations despite muted trader interest.
    cryptopotato.com
    Aug 6, 2026 20:02
    PEPE Exchange Outflows Hit Nearly 2-Year High as Whales Accumulate
    Pepe (PEPE) recorded its largest single-day exchange outflow since November 2024, with 4.54 trillion tokens leaving trading platforms, signaling that holders are moving supply away from immediate...
    beincrypto.com
    Aug 6, 2026 04:57
    Meme Coin Based on White House Shooter Conspiracy Rallies 320%
    $HENRY surged 300% after a 2023 Pepe tweet appeared to name the White House shooter, fueling a viral time-travel meme. The post Meme Coin Based on White House Shooter Conspiracy Rallies 320%...
    beincrypto.com
    Apr 27, 2026 16:11
    PEPE surges 4% as market sentiment improves, eyes Key resistance breakout
    Key takeaways Pepe extends gains on Wednesday, stretching its rally from the 50-day EMA. Derivatives data show heightened retail activity as risk-on sentiment returns to the market. Pepe (PEPE) is...
    coinjournal.net
    Apr 22, 2026 11:44
    Why The PEPE Price Could Stage A 55X Rally To Reach New $0.0001 ATH
    The PEPE price has now started to edge back into bullish conversations after the recent inflows into the crypto market. The last time PEPE’s weekly chart printed the kind of structure now...
    newsbtc.com
    Apr 21, 2026 15:30
    Pepe (PEPE) surges 9%, drawing interest from whales
    Key takeaways PEPE is up 9% in the last 24 hours, making it one of the best performers among the top 50 cryptocurrencies by market cap. The rally comes amid renewed interest from whales and retail...
    coinjournal.net
    Apr 16, 2026 07:40
    Murad Says SPX6900 (SPX) Is Primed for a Rally — Is He Right This Time?
    Crypto influencer Murad Mahmudov claims SPX6900 (SPX) is stabilizing at the same market cap level where Dogecoin (DOGE) and Pepe (PEPE) consolidated before their explosive rallies. The...
    beincrypto.com
    Apr 5, 2026 21:36
    The Shiba Inu Of This Cycle: Analyst Shares Why It Is Better To Buy PEPE Now
    In the bull market cycle of 2021-2022, the Shiba Inu meme coin made waves in a way that changed the face of meme coins forever. This came after Dogecoin’s initial 36,000% rally, and Shiba Inu...
    newsbtc.com
    Apr 4, 2026 07:30
    PEPE Explodes by 18% Amid Altcoin Rally, BTC Tapped $74K: Market Watch
    The frog-themed meme coin is today's biggest gainer, followed by TAO, DOT, and BONK.
    cryptopotato.com
    Mar 16, 2026 10:56
    Should PEPE traders brace for volatility as short squeeze potential builds?
    The memecoin market has seen its collective market capitalization drop by 48% over the past year, and 6.9% over the past month, according to CoinMarketCap. According to Glassnode, the memecoin...
    ambcrypto.com
    Mar 7, 2026 18:00
    Komutu sohbete yazmanız yeterlidir. Takma ad1'i gerçek takma adla değiştirin.
    • /ignore nick1 Sohbet kullanıcısını engelle
    • /unignore nick1 Sohbet kullanıcısının engelini kaldır.
    • /ignorelist Engellediğiniz sohbet kullanıcılarını gösterin